Temp
-7 -8 -7 -7 -7 -8 -8 -8 -8 -8 -8 -8 -8 -8 -8 -8 -8 -8 -8 -8 -9 -9 -9 -9 -9 -9 -9 -9 -9 -9 -9 -9 -9 -9 -9 -9 -8 -8 -8 -8 -8 -8
-7 -8 -7 -7 -7 -8 -8 -8 -8 -8 -8 -8 -8 -8 -8 -8 -8 -8 -9 -8 -8 -9 -9 -9 -9 -9 -9 -9 -9 -9 -8 -9 -9 -9 -9 -8 -8 -8 -8 -9 -8 -8
-7 -8 -7 -7 -8 -8 -8 -8 -8 -8 -8 -8 -8 -8 -8 -8 -8 -8 -8 -8 -8 -8 -8 -8 -8 -9 -9 -8 -8 -8 -8 -8 -9 -9 -8 -8 -8 -8 -8 -8 -8 -8
-8 -7 -7 -7 -8 -8 -8 -8 -8 -8 -8 -8 -8 -8 -8 -8 -8 -8 -8 -8 -8 -8 -8 -8 -8 -8 -8 -8 -8 -8 -8 -8 -8 -8 -8 -8 -8 -8 -8 -8 -8 -8
-7 -7 -7 -7 -8 -8 -8 -8 -8 -8 -8 -8 -8 -8 -8 -8 -8 -8 -8 -8 -8 -8 -8 -8 -8 -8 -8 -8 -8 -8 -8 -8 -8 -8 -8 -8 -8 -8 -8 -8 -8 -8
-7 -7 -7 -7 -8 -8 -8 -8 -8 -8 -8 -8 -8 -8 -8 -8 -8 -8 -8 -8 -8 -8 -8 -8 -8 -8 -8 -8 -8 -8 -8 -8 -8 -8 -8 -8 -8 -8 -8 -8 -8 -8
-7 -7 -7 -7 -7 -7 -8 -8 -8 -8 -8 -8 -8 -8 -8 -8 -8 -8 -8 -8 -8 -8 -8 -8 -8 -8 -8 -8 -8 -8 -8 -8 -8 -8 -8 -8 -8 -8 -8 -8 -8 -8
-7 -7 -7 -7 -7 -7 -7 -8 -8 -8 -8 -8 -8 -8 -8 -8 -8 -8 -8 -8 -8 -8 -8 -8 -8 -8 -8 -8 -8 -8 -8 -8 -8 -8 -8 -8 -8 -8 -8 -8 -8 -8
-7 -7 -7 -7 -7 -7 -7 -8 -8 -8 -8 -8 -8 -8 -8 -8 -8 -8 -8 -8 -8 -8 -8 -8 -8 -8 -8 -8 -8 -8 -8 -8 -8 -8 -8 -8 -8 -8 -8 -8 -8 -8
-7 -7 -7 -7 -7 -7 -7 -7 -8 -8 -8 -8 -8 -8 -8 -8 -8 -8 -8 -8 -8 -8 -8 -8 -8 -8 -8 -8 -8 -8 -8 -8 -8 -8 -8 -8 -8 -8 -8 -8 -8 -8
-7 -7 -8 -8 -8 -7 -7 -7 -7 -8 -8 -8 -8 -8 -8 -8 -8 -8 -8 -8 -8 -8 -8 -8 -8 -8 -8 -8 -8 -8 -8 -8 -8 -8 -8 -8 -8 -8 -8 -8 -8 -8
-8 -8 -8 -8 -8 -8 -7 -8 -8 -8 -8 -8 -8 -8 -8 -7 -7 -7 -8 -8 -8 -7 -7 -7 -7 -7 -7 -7 -7 -7 -7 -8 -8 -8 -8 -8 -8 -8 -8 -8 -8 -8
-8 -8 -8 -8 -8 -8 -7 -8 -8 -8 -8 -8 -8 -8 -7 -7 -7 -8 -8 -8 -7 -7 -7 -7 -7 -7 -7 -7 -7 -7 -7 -8 -8 -8 -8 -8 -8 -8 -8 -8 -8 -7
-8 -8 -8 -7 -8 -8 -8 -8 -8 -8 -8 -8 -8 -8 -8 -8 -8 -8 -8 -8 -7 -7 -7 -7 -7 -7 -7 -7 -7 -7 -7 -7 -7 -7 -7 -7 -7 -7 -7 -7 -7 -7
-8 -8 -8 -7 -7 -7 -8 -8 -8 -8 -7 -7 -7 -8 -8 -8 -7 -7 -7 -7 -7 -7 -7 -7 -7 -7 -8 -8 -8 -7 -7 -7 -7 -7 -7 -7 -7 -7 -7 -7 -7 -7
-8 -8 -8 -8 -8 -8 -8 -8 -8 -8 -7 -7 -7 -7 -7 -7 -7 -7 -7 -7 -7 -8 -8 -8 -8 -8 -8 -8 -8 -7 -7 -7 -7 -7 -7 -7 -7 -7 -7 -7 -7 -7
-8 -8 -8 -8 -7 -7 -7 -7 -7 -7 -7 -7 -7 -7 -7 -7 -7 -7 -7 -7 -7 -7 -8 -8 -8 -8 -8 -8 -8 -7 -7 -7 -7 -7 -7 -7 -7 -7 -7 -7 -7 -7
-8 -8 -8 -8 -8 -8 -8 -8 -8 -8 -8 -8 -8 -7 -7 -7 -7 -7 -7 -7 -7 -7 -7 -8 -8 -8 -8 -8 -8 -7 -7 -7 -7 -7 -7 -7 -7 -7 -7 -7 -7 -7
-8 -8 -8 -8 -8 -8 -8 -8 -8 -8 -8 -8 -8 -8 -8 -7 -7 -7 -7 -7 -7 -7 -7 -7 -8 -8 -8 -7 -7 -7 -7 -7 -7 -7 -7 -7 -7 -7 -7 -7 -7 -7
-9 -9 -9 -9 -8 -8 -8 -8 -8 -8 -8 -8 -8 -8 -8 -8 -8 -7 -7 -7 -7 -7 -7 -7 -8 -8 -8 -7 -7 -7 -7 -7 -7 -7 -7 -7 -7 -7 -7 -7 -7 -7
-9 -9 -9 -9 -9 -8 -8 -8 -8 -8 -8 -8 -8 -8 -8 -8 -8 -8 -7 -7 -7 -7 -7 -7 -7 -7 -7 -7 -7 -7 -7 -7 -7 -7 -7 -7 -7 -7 -7 -7 -7 -7
-8 -8 -9 -9 -9 -8 -8 -8 -8 -8 -8 -8 -8 -8 -8 -8 -8 -8 -8 -7 -7 -7 -7 -7 -7 -7 -7 -7 -7 -7 -7 -7 -7 -7 -7 -7 -7 -7 -7 -7 -7 -7
-9 -8 -9 -9 -9 -9 -8 -8 -8 -8 -8 -8 -8 -8 -8 -8 -8 -8 -8 -8 -7 -7 -7 -7 -7 -7 -7 -7 -7 -7 -7 -7 -7 -7 -7 -7 -7 -7 -7 -7 -7 -7
-9 -9 -9 -9 -9 -9 -9 -8 -8 -8 -8 -8 -8 -8 -8 -8 -8 -8 -8 -8 -8 -7 -7 -7 -7 -7 -7 -7 -7 -7 -7 -7 -7 -7 -7 -7 -7 -7 -7 -7 -7 -7
-8 -8 -8 -8 -8 -8 -8 -8 -8 -8 -8 -8 -8 -8 -8 -8 -8 -7 -8 -8 -8 -8 -8 -7 -7 -7 -7 -7 -7 -7 -7 -7 -7 -7 -7 -7 -7 -7 -7 -7 -7 -7
-8 -8 -8 -8 -8 -8 -8 -8 -8 -8 -8 -8 -8 -8 -8 -8 -8 -7 -7 -8 -8 -8 -8 -8 -8 -7 -7 -7 -7 -7 -7 -7 -7 -7 -7 -7 -7 -7 -7 -7 -7 -7
Height
5860 5861 5863 5865 5867 5869 5871 5872 5874 5875 5877 5879 5881 5882 5883 5885 5887 5890 5892 5894 5896 5897 5899 5902 5903 5905 5907 5908 5910 5911 5912 5913 5914 5915 5916 5918 5919 5920 5921 5921 5922 5923
5860 5861 5863 5865 5867 5868 5870 5872 5873 5875 5876 5878 5880 5881 5883 5885 5887 5890 5892 5893 5895 5897 5899 5901 5903 5904 5906 5907 5909 5910 5911 5912 5913 5914 5916 5917 5918 5919 5920 5921 5922 5923
5860 5861 5863 5865 5866 5867 5869 5871 5872 5874 5876 5878 5880 5882 5883 5885 5887 5889 5891 5893 5895 5897 5899 5901 5902 5904 5905 5907 5908 5909 5910 5911 5912 5913 5915 5916 5917 5918 5919 5920 5921 5922
5860 5861 5862 5864 5865 5866 5868 5870 5872 5873 5875 5878 5880 5882 5883 5885 5887 5890 5891 5893 5895 5897 5899 5900 5901 5903 5904 5906 5907 5908 5909 5910 5911 5913 5914 5915 5916 5917 5918 5919 5920 5921
5859 5861 5862 5864 5865 5866 5868 5870 5871 5873 5875 5877 5879 5881 5883 5885 5887 5890 5891 5893 5895 5897 5898 5900 5901 5902 5904 5905 5906 5907 5908 5909 5911 5912 5913 5914 5915 5916 5917 5918 5919 5920
5860 5861 5862 5864 5864 5865 5867 5869 5871 5872 5874 5876 5879 5881 5883 5885 5887 5889 5891 5893 5894 5896 5898 5899 5900 5902 5903 5904 5905 5906 5907 5908 5910 5911 5912 5913 5914 5915 5916 5917 5918 5919
5860 5861 5863 5864 5865 5866 5867 5869 5871 5872 5874 5876 5879 5881 5883 5885 5886 5888 5890 5892 5893 5895 5897 5898 5899 5901 5902 5903 5904 5905 5906 5908 5909 5910 5911 5912 5913 5914 5914 5916 5917 5918
5860 5861 5863 5864 5865 5866 5868 5869 5871 5873 5874 5877 5879 5881 5882 5884 5885 5887 5888 5890 5892 5894 5895 5897 5898 5899 5901 5902 5903 5904 5905 5906 5908 5909 5910 5911 5912 5912 5913 5915 5916 5917
5860 5861 5863 5864 5866 5867 5868 5870 5871 5873 5875 5877 5879 5880 5882 5883 5884 5886 5887 5889 5891 5892 5894 5895 5897 5898 5899 5900 5901 5903 5904 5905 5906 5907 5908 5910 5911 5912 5913 5914 5915 5916
5860 5861 5862 5864 5865 5867 5868 5870 5871 5873 5874 5876 5878 5880 5881 5883 5884 5885 5887 5888 5889 5891 5892 5893 5895 5896 5898 5899 5900 5901 5902 5903 5904 5906 5907 5908 5909 5910 5912 5913 5914 5914
5860 5861 5862 5863 5865 5866 5868 5869 5871 5872 5874 5875 5877 5879 5880 5882 5883 5885 5886 5887 5888 5889 5890 5892 5893 5894 5896 5897 5898 5900 5901 5902 5903 5904 5906 5907 5908 5909 5910 5911 5912 5913
5860 5861 5861 5863 5864 5865 5867 5868 5870 5871 5873 5874 5876 5877 5879 5881 5882 5884 5885 5886 5886 5887 5888 5890 5891 5893 5894 5896 5897 5898 5900 5901 5902 5903 5904 5905 5906 5908 5909 5910 5911 5912
5859 5860 5861 5862 5863 5864 5866 5867 5868 5870 5871 5873 5874 5876 5877 5879 5881 5882 5883 5884 5885 5886 5887 5888 5890 5891 5892 5894 5896 5897 5898 5900 5901 5902 5903 5904 5905 5906 5907 5908 5909 5910
5857 5858 5860 5861 5862 5863 5865 5866 5867 5868 5870 5871 5873 5874 5875 5877 5878 5879 5880 5881 5883 5884 5885 5886 5888 5889 5890 5892 5894 5895 5897 5898 5899 5900 5901 5902 5903 5904 5905 5906 5907 5908
5856 5857 5858 5860 5861 5862 5864 5865 5866 5867 5868 5869 5871 5872 5873 5874 5876 5877 5878 5879 5880 5881 5883 5884 5885 5887 5888 5889 5891 5893 5894 5896 5897 5899 5900 5901 5901 5902 5903 5904 5905 5905
5854 5855 5857 5858 5860 5861 5862 5864 5865 5865 5866 5868 5869 5870 5871 5872 5873 5874 5875 5876 5877 5879 5880 5882 5883 5884 5885 5887 5888 5890 5892 5893 5895 5896 5898 5899 5900 5901 5902 5902 5903 5903
5853 5854 5856 5858 5859 5861 5863 5864 5864 5865 5866 5867 5867 5868 5869 5870 5871 5873 5873 5874 5875 5876 5878 5879 5881 5882 5883 5884 5885 5887 5888 5890 5892 5893 5895 5896 5898 5899 5899 5900 5901 5901
5853 5855 5858 5859 5861 5862 5862 5863 5864 5865 5866 5866 5867 5867 5867 5868 5870 5871 5872 5872 5873 5874 5875 5877 5878 5879 5880 5882 5883 5884 5885 5887 5889 5890 5892 5894 5895 5896 5897 5898 5898 5899
5853 5855 5857 5858 5859 5859 5859 5859 5860 5862 5863 5864 5865 5866 5866 5867 5868 5869 5870 5871 5872 5873 5873 5874 5875 5876 5878 5880 5881 5882 5883 5884 5886 5887 5889 5891 5892 5893 5894 5895 5896 5897
5850 5852 5852 5853 5855 5855 5856 5857 5858 5859 5860 5861 5862 5863 5864 5866 5867 5868 5868 5869 5870 5871 5871 5872 5873 5873 5875 5877 5879 5880 5881 5882 5883 5884 5886 5888 5889 5890 5891 5892 5893 5894
5847 5848 5848 5849 5851 5852 5854 5856 5857 5858 5859 5859 5860 5861 5862 5863 5864 5866 5867 5867 5868 5869 5869 5871 5871 5872 5872 5874 5876 5877 5878 5879 5881 5882 5883 5884 5885 5887 5888 5889 5890 5891
5843 5844 5845 5846 5848 5849 5851 5853 5854 5854 5855 5856 5857 5858 5860 5861 5862 5863 5865 5866 5866 5867 5868 5869 5870 5870 5871 5872 5873 5875 5876 5877 5879 5880 5881 5882 5883 5883 5884 5885 5887 5888
5839 5841 5842 5843 5844 5846 5847 5849 5850 5851 5851 5852 5853 5855 5856 5858 5859 5860 5861 5863 5864 5865 5866 5868 5868 5869 5870 5871 5872 5873 5874 5875 5877 5878 5879 5880 5880 5881 5881 5882 5883 5884
5835 5837 5838 5840 5841 5842 5843 5844 5845 5847 5848 5849 5850 5852 5853 5854 5855 5857 5858 5860 5861 5863 5864 5866 5866 5867 5868 5869 5871 5871 5873 5874 5875 5876 5877 5878 5878 5879 5879 5880 5880 5881
5832 5834 5835 5836 5838 5838 5839 5840 5841 5843 5844 5845 5847 5848 5850 5851 5852 5854 5856 5858 5859 5861 5862 5864 5864 5865 5866 5867 5868 5869 5871 5872 5873 5874 5875 5876 5876 5877 5878 5878 5878 5879
5829 5830 5832 5833 5834 5835 5835 5836 5837 5838 5840 5841 5843 5844 5846 5848 5850 5852 5854 5855 5856 5857 5859 5860 5862 5862 5863 5864 5865 5866 5867 5869 5870 5872 5874 5874 5874 5875 5875 5876 5877 5877
Wind_Speed
18 19 18 18 18 17 17 18 20 19 18 18 18 20 22 23 25 26 24 22 23 23 23 23 22 22 23 24 23 20 18 17 16 16 16 15 15 15 15 14 13 12
17 18 16 16 18 18 17 19 21 19 19 19 19 21 22 23 26 26 23 22 22 22 21 21 22 22 22 23 23 20 18 17 16 16 15 15 15 16 16 15 13 12
16 16 15 15 18 19 18 20 20 19 19 19 19 21 21 23 25 25 23 22 21 20 20 20 21 22 21 21 21 19 17 16 16 16 16 16 16 17 16 15 14 13
15 16 15 16 18 19 18 19 20 19 19 19 20 22 23 23 25 23 21 20 19 19 19 20 21 21 21 20 19 17 16 16 16 16 15 16 17 17 17 15 14 13
14 15 15 16 18 18 18 18 19 19 20 21 22 24 23 23 22 21 19 18 17 18 19 19 20 19 19 19 18 17 16 16 16 16 16 16 17 17 16 15 14 14
13 14 15 16 17 17 17 18 20 20 21 22 23 23 22 21 20 20 19 18 18 18 18 19 18 18 18 18 18 17 16 16 15 15 16 16 16 16 16 15 15 15
12 14 15 15 15 16 17 19 20 20 21 23 23 23 22 20 20 20 19 18 18 18 18 18 17 17 17 17 17 17 16 15 15 15 16 16 16 16 15 15 16 16
12 13 14 14 14 15 16 18 20 20 21 22 22 22 21 21 20 20 18 18 18 18 18 17 16 16 16 16 16 16 16 16 15 16 16 16 16 16 16 16 16 17
13 13 14 14 14 15 16 17 19 19 20 20 21 21 20 19 19 19 18 18 18 17 16 16 16 15 15 15 15 15 16 16 16 17 17 17 17 17 17 17 17 17
13 13 14 14 14 15 16 17 18 18 18 19 19 19 18 18 17 17 17 17 16 16 15 15 15 15 15 15 15 15 15 16 17 17 18 18 18 18 17 17 18 18
14 14 14 15 15 15 16 16 17 17 18 18 18 18 17 17 17 16 16 16 16 16 16 16 15 15 15 15 16 16 16 16 17 18 19 19 18 18 18 18 18 19
14 15 15 15 16 16 16 16 16 16 17 17 18 18 17 17 16 16 17 17 17 16 16 16 16 15 16 16 16 16 17 17 18 18 19 19 19 19 18 18 19 19
16 16 16 16 17 17 17 17 17 17 17 17 17 18 17 16 16 17 17 18 17 16 16 16 16 16 16 16 17 17 17 18 18 19 19 19 19 19 18 18 19 19
19 18 18 17 18 18 18 18 18 19 18 18 18 18 17 17 17 18 18 18 17 17 17 17 16 16 17 18 18 18 18 18 19 19 19 19 19 19 18 18 19 19
22 21 20 19 19 18 18 19 19 20 19 19 18 19 18 18 18 18 18 18 18 17 17 17 17 17 18 19 19 19 19 19 20 19 19 19 19 19 19 19 20 21
25 24 22 21 20 20 20 20 20 20 20 19 19 20 19 19 19 19 19 19 19 19 18 18 18 18 19 20 20 20 20 20 20 20 20 20 20 20 20 20 21 22
28 27 25 23 22 21 20 20 20 21 20 20 21 21 21 21 21 21 21 21 21 20 20 19 19 20 21 21 21 22 22 22 22 22 22 22 22 22 22 22 23 24
29 27 26 24 23 23 22 22 22 21 21 21 21 22 23 23 22 23 23 23 22 22 21 21 21 22 23 23 23 24 24 23 23 23 23 23 24 24 24 24 25 25
28 27 27 27 27 27 27 27 26 25 24 24 23 24 25 24 24 24 24 24 24 23 23 23 23 24 25 25 26 26 26 26 25 25 25 25 25 25 25 26 26 25
28 29 29 30 30 31 31 30 29 28 27 27 26 26 26 26 25 25 25 25 25 25 25 25 25 26 27 27 28 28 28 27 27 27 26 26 26 26 27 27 26 25
29 30 31 32 31 32 32 31 30 30 29 29 28 28 27 27 27 26 26 25 25 26 27 27 27 29 29 29 29 29 29 29 28 28 28 27 28 28 27 27 26 25
28 29 30 32 32 33 32 33 33 33 32 32 31 30 29 28 28 27 27 27 26 27 27 27 28 30 30 30 30 30 30 29 29 29 29 28 28 28 28 27 26 25
25 26 27 29 32 33 34 35 35 35 35 35 34 32 31 29 29 29 29 28 27 27 27 27 28 30 30 31 31 31 30 29 29 29 29 29 28 28 28 27 27 27
27 26 26 27 29 33 36 37 37 37 37 36 35 33 32 31 32 31 30 29 28 27 27 27 27 29 30 30 30 30 30 29 29 29 29 28 28 29 29 29 29 30
30 29 27 26 26 30 35 39 39 39 39 38 36 35 34 33 33 32 31 30 29 28 27 26 27 28 29 29 29 29 29 29 29 28 28 28 29 30 30 29 30 31
31 31 30 29 27 27 31 36 38 38 39 39 39 38 36 35 34 33 32 31 30 29 28 28 28 28 29 29 30 30 29 29 28 28 28 29 30 30 30 30 31 31
Wind_Direction
196 196 196 195 198 198 195 192 192 195 199 198 195 191 189 188 186 184 183 184 186 188 189 190 190 193 197 202 205 206 205 205 206 206 206 204 203 206 211 211 210 213
196 198 199 199 198 195 193 191 190 191 193 194 195 190 186 186 186 186 187 189 190 190 190 191 193 195 198 202 206 207 207 206 207 209 210 208 207 210 212 212 211 214
196 198 200 202 198 194 194 193 192 193 195 197 196 190 186 186 187 189 192 195 196 195 193 194 196 198 201 203 207 208 207 208 209 212 213 212 212 214 215 215 214 215
194 197 200 200 196 195 197 196 196 195 196 197 194 190 188 187 188 191 196 199 201 200 199 200 201 203 205 207 210 210 209 211 214 216 217 216 216 217 217 218 218 219
189 192 194 193 191 194 196 196 196 194 191 190 188 187 187 186 188 193 198 201 202 203 204 205 206 207 207 209 212 212 212 215 217 219 220 219 218 218 217 218 220 222
180 182 184 187 186 188 189 190 192 187 182 182 184 187 188 188 191 195 198 201 203 205 207 208 209 209 209 211 213 214 216 218 219 221 222 221 220 220 217 217 220 223
176 177 179 182 181 179 179 183 184 180 177 181 187 191 192 193 195 197 200 203 207 209 210 210 211 212 213 214 216 218 221 221 221 223 224 223 222 221 218 218 221 224
176 179 181 182 178 175 176 179 183 183 183 187 193 196 196 197 198 201 204 206 210 212 212 212 214 216 217 218 219 222 224 224 222 223 226 224 222 221 219 219 222 225
180 182 184 185 183 181 181 184 187 189 190 193 198 201 202 202 203 205 207 208 211 213 212 214 216 218 220 222 224 225 226 226 224 225 226 225 223 223 221 222 225 228
183 185 185 187 189 189 190 193 196 196 197 200 204 207 209 210 209 208 208 209 211 213 213 215 216 218 222 224 226 226 226 228 227 226 226 225 224 224 223 224 227 229
186 186 187 188 190 193 196 200 203 205 206 207 208 210 213 213 212 211 210 210 212 213 213 215 216 218 221 223 224 223 223 225 227 227 226 225 225 225 224 225 228 230
193 191 190 191 191 193 195 199 204 209 212 211 210 211 212 213 214 215 215 214 214 214 215 216 217 218 220 222 223 222 223 224 225 225 225 225 225 225 226 227 229 231
202 200 197 197 197 197 197 197 200 205 212 213 212 212 210 211 214 216 218 219 218 217 218 218 218 218 220 223 224 224 225 225 225 225 224 223 223 224 226 227 230 232
210 209 206 204 205 205 204 203 203 204 209 212 214 215 213 212 214 217 220 221 221 221 222 222 221 221 222 223 224 225 226 227 227 227 226 225 224 225 226 227 229 231
215 216 215 213 212 212 212 213 212 210 210 212 215 218 218 216 216 218 221 223 224 225 225 225 224 224 225 225 225 225 226 227 228 228 228 228 228 228 228 227 229 231
219 220 220 221 220 219 218 219 220 220 218 216 218 222 223 221 220 221 222 224 226 228 228 228 228 228 228 228 227 226 227 228 229 229 230 230 230 230 230 229 230 231
223 223 224 226 227 228 227 227 228 228 227 224 223 225 226 226 225 225 226 226 227 228 229 229 230 231 230 229 228 227 226 227 228 228 229 229 230 230 230 230 231 232
227 229 230 232 234 235 236 235 235 235 236 235 233 232 231 229 227 227 229 229 229 228 228 228 230 232 232 230 229 227 226 226 227 227 227 228 229 229 230 230 231 232
229 231 233 234 234 234 234 234 234 234 234 236 237 238 238 236 232 230 230 231 231 231 230 229 230 232 232 231 230 229 227 225 224 225 225 227 228 229 230 232 232 233
230 230 231 231 231 232 234 235 235 235 234 234 235 237 240 241 239 235 233 232 231 231 231 231 231 232 232 232 231 230 229 226 224 223 223 225 227 229 230 232 233 234
231 231 232 232 231 231 232 234 235 236 237 238 237 237 238 240 240 239 237 235 233 232 232 233 233 234 233 232 232 231 230 227 225 224 224 224 226 228 230 232 232 232
233 233 234 235 235 233 231 231 231 231 233 235 236 237 237 239 241 240 239 237 236 235 234 234 236 237 237 235 234 234 233 231 229 229 228 227 228 229 229 229 230 229
237 237 236 236 235 235 234 234 233 231 231 232 233 234 235 237 241 242 240 237 236 236 236 236 238 240 241 240 239 238 237 235 234 234 234 232 231 231 229 227 226 225
241 241 240 238 236 235 234 235 236 235 234 234 233 233 234 235 238 239 240 239 238 236 235 236 238 241 243 243 243 242 241 240 238 237 237 236 235 233 231 228 226 226
246 246 244 242 241 240 237 236 237 238 237 237 236 235 235 236 237 238 239 239 240 239 237 236 237 241 243 243 243 243 243 242 242 241 240 239 238 236 234 232 231 231
249 249 248 246 247 248 243 238 237 238 238 238 238 236 236 237 239 241 241 240 241 240 240 238 237 239 242 244 244 244 243 242 242 243 243 243 243 242 239 238 238 238